London-Corbin, KY

5:32 PM EDT on April 28, 2017 (GMT -0400)
London-Corbin / McKee

Weather History for KLOZ - April, 2014

Change the Weather History Date:

Friday, April 4, 2014

  Actual Average Record
Temperature  
Mean Temperature 55 °F 53 °F  
Max Temperature 66 °F 65 °F 82 °F (1986)
Min Temperature 43 °F 41 °F 26 °F (1962)
Degree Days  
Heating Degree Days 10 12  
Month to date heating degree days 13 51  
Since 1 July heating degree days 4171 3876  
Cooling Degree Days 0 0  
Month to date cooling degree days 4 0  
Year to date cooling degree days 4 3  
Growing Degree Days 5 (Base 50)    
Moisture  
Dew Point 54 °F    
Average Humidity 79    
Maximum Humidity 93    
Minimum Humidity 65    
Precipitation  
Precipitation 0.49 in 0.12 in 2.75 in (1977)
Month to date precipitation 1.13 0.51  
Year to date precipitation 12.81  
Sea Level Pressure  
Sea Level Pressure 29.79 in    
Wind  
Wind Speed 10 mph (WSW)    
Max Wind Speed 24 mph    
Max Gust Speed 35 mph    
Visibility 8 miles    
Events Rain , Thunderstorm    
T = Trace of Precipitation, MM = Missing Value Source: NWS Daily Summary

Daily Weather History Graph

Daily Weather History Graph

Search for Another Location

Airport or City:

Trip Planner

Search our weather history database for the weather conditions in past years. The results will help you decide how hot, cold, wet, or windy it might be!

Date:

Astronomy

Apr. 04, 2014 Rise Set
Actual Time 7:17 AM EDT 8:01 PM EDT
Civil Twilight 6:51 AM EDT 8:27 PM EDT
Nautical Twilight 6:20 AM EDT 8:58 PM EDT
Astronomical Twilight 5:48 AM EDT 9:30 PM EDT
Moon 10:38 AM EDT (4/4) 12:14 AM EDT (4/4)
Length of Visible Light 13h 36m
Length of Day
12h 43m
Waxing Crescent, 25% of the Moon is Illuminated
Apr 4
Waxing Crescent
Apr 7
First Quarter
Apr 15
Full
Apr 22
Last Quarter
Apr 29
New

Hourly Weather History & Observations

Time (EDT) Temp. Windchill Dew Point Humidity Pressure Visibility Wind Dir Wind Speed Gust Speed Precip Events Conditions
12:53 AM 59.0 °F - 57.0 °F 93% 29.85 in 10.0 mi SE 4.6 mph - N/A   Partly Cloudy
1:53 AM 60.1 °F - 57.0 °F 90% 29.81 in 10.0 mi SSE 3.5 mph - N/A   Overcast
2:53 AM 59.0 °F - 55.9 °F 90% 29.77 in 10.0 mi Calm Calm - N/A   Clear
3:53 AM 59.0 °F - 55.9 °F 90% 29.75 in 10.0 mi South 3.5 mph - N/A   Partly Cloudy
4:53 AM 64.0 °F - 55.9 °F 75% 29.69 in 10.0 mi South 8.1 mph - N/A   Clear
5:53 AM 64.0 °F - 55.0 °F 73% 29.70 in 10.0 mi SSW 6.9 mph - N/A   Scattered Clouds
6:53 AM 64.9 °F - 55.0 °F 70% 29.68 in 10.0 mi South 10.4 mph - N/A   Overcast
7:53 AM 64.9 °F - 55.0 °F 70% 29.66 in 10.0 mi South 11.5 mph - N/A   Overcast
8:35 AM 63.0 °F - 55.9 °F 78% 29.73 in 9.0 mi SW 10.4 mph - 0.04 in Rain , Thunderstorm Light Rain
8:45 AM 63.0 °F - 57.0 °F 81% 29.74 in 2.5 mi SW 10.4 mph - 0.10 in Rain , Thunderstorm Heavy Rain
8:50 AM 62.6 °F - 57.2 °F 82% 29.74 in 1.8 mi SW 13.8 mph 20.7 mph 0.13 in Rain , Thunderstorm Heavy Rain
8:53 AM 63.0 °F - 57.9 °F 84% 29.73 in 1.8 mi WSW 17.3 mph 24.2 mph 0.15 in Rain , Thunderstorm Heavy Rain
9:04 AM 62.1 °F - 57.9 °F 86% 29.75 in 2.0 mi West 24.2 mph 34.5 mph 0.07 in Rain , Thunderstorm Rain
9:07 AM 61.0 °F - 57.0 °F 87% 29.76 in 2.5 mi WNW 21.9 mph 34.5 mph 0.09 in Rain Rain
9:16 AM 61.0 °F - 55.0 °F 81% 29.78 in 4.0 mi WNW 18.4 mph 33.4 mph 0.12 in Rain Light Rain
9:53 AM 60.1 °F - 55.0 °F 83% 29.79 in 10.0 mi West 12.7 mph 20.7 mph 0.15 in Rain Light Rain
10:53 AM 60.1 °F - 55.0 °F 83% 29.71 in 10.0 mi SSE 10.4 mph - 0.03 in   Partly Cloudy
11:53 AM 61.0 °F - 55.0 °F 81% 29.74 in 10.0 mi SSW 12.7 mph - N/A   Clear
12:53 PM 64.9 °F - 55.0 °F 70% 29.75 in 10.0 mi SW 10.4 mph 20.7 mph N/A   Overcast
1:53 PM 64.0 °F - 54.0 °F 70% 29.76 in 10.0 mi SW 15.0 mph 26.5 mph 0.00 in Rain Light Rain
2:29 PM 61.0 °F - 55.9 °F 83% 29.80 in 2.5 mi WSW 19.6 mph 32.2 mph 0.02 in Rain Light Rain
2:38 PM 61.0 °F - 55.9 °F 83% 29.79 in 6.0 mi WSW 18.4 mph - 0.03 in Rain Light Rain
2:53 PM 63.0 °F - 55.9 °F 78% 29.77 in 10.0 mi West 18.4 mph 27.6 mph 0.03 in   Mostly Cloudy
3:26 PM 64.0 °F - 55.9 °F 75% 29.78 in 10.0 mi WSW 13.8 mph - N/A   Overcast
3:53 PM 63.0 °F - 55.0 °F 75% 29.77 in 6.0 mi WSW 11.5 mph - 0.01 in Rain Light Rain
4:02 PM 62.1 °F - 55.9 °F 80% 29.79 in 1.8 mi SW 10.4 mph 19.6 mph 0.04 in Rain Light Rain
4:06 PM 62.1 °F - 55.9 °F 80% 29.79 in 2.5 mi WSW 12.7 mph 19.6 mph 0.05 in Rain Rain
4:08 PM 62.1 °F - 55.9 °F 80% 29.79 in 3.0 mi WSW 13.8 mph 19.6 mph 0.05 in Rain Light Rain
4:17 PM 61.0 °F - 55.9 °F 83% 29.79 in 3.0 mi WSW 13.8 mph 20.7 mph 0.07 in Rain Light Rain
4:53 PM 63.0 °F - 57.0 °F 81% 29.77 in 10.0 mi SW 6.9 mph 18.4 mph 0.08 in   Partly Cloudy
5:53 PM 64.0 °F - 54.0 °F 70% 29.79 in 9.0 mi West 13.8 mph 25.3 mph 0.00 in Rain Light Rain
6:53 PM 59.0 °F - 50.0 °F 72% 29.83 in 10.0 mi NW 18.4 mph 26.5 mph 0.04 in   Mostly Cloudy
7:53 PM 55.9 °F - 46.9 °F 72% 29.87 in 10.0 mi WNW 10.4 mph - N/A   Partly Cloudy
8:53 PM 53.1 °F - 42.1 °F 66% 29.92 in 10.0 mi NW 8.1 mph 18.4 mph N/A   Overcast
9:53 PM 48.9 °F - 37.9 °F 66% 29.99 in 10.0 mi WNW 13.8 mph 19.6 mph N/A   Partly Cloudy
10:53 PM 46.0 °F 43.9 °F 37.0 °F 71% 30.01 in 10.0 mi NW 4.6 mph - N/A   Clear
11:53 PM 44.1 °F 40.8 °F 34.0 °F 68% 30.02 in 10.0 mi WNW 5.8 mph - N/A   Clear